Omaha Offutt, NE

11:58 AM CDT on April 30, 2017 (GMT -0500)
Offutt Air Force Base

Weather History for KOFF - July, 2013

Change the Weather History Date:

Saturday, July 20, 2013

  Actual Average Record
Temperature  
Mean Temperature 74 °F -  
Max Temperature 88 °F 85 °F 104 °F (2002)
Min Temperature 61 °F 67 °F 61 °F (2013)
Cooling Degree Days 10    
Growing Degree Days 24 (Base 50)    
Moisture  
Dew Point 61 °F    
Average Humidity 59    
Maximum Humidity 95    
Minimum Humidity 34    
Precipitation  
Precipitation 0.00 in - - ()
Sea Level Pressure  
Sea Level Pressure 29.93 in    
Wind  
Wind Speed 4 mph (East)    
Max Wind Speed 9 mph    
Max Gust Speed -    
Visibility 10 miles    
Events      
Averages and records for this station are not official NWS values.
T = Trace of Precipitation, MM = Missing Value Source: NWS Daily Summary

Daily Weather History Graph

Daily Weather History Graph

Search for Another Location

Airport or City:

Trip Planner

Search our weather history database for the weather conditions in past years. The results will help you decide how hot, cold, wet, or windy it might be!

Date:

Astronomy

Jul. 20, 2013 Rise Set
Actual Time 6:08 AM CDT 8:51 PM CDT
Civil Twilight 5:36 AM CDT 9:23 PM CDT
Nautical Twilight 4:55 AM CDT 10:03 PM CDT
Astronomical Twilight 4:09 AM CDT 10:49 PM CDT
Moon 6:55 PM CDT (7/20) 3:49 AM CDT (7/20)
Length of Visible Light 15h 46m
Length of Day
14h 42m
Waxing Gibbous, 94% of the Moon is Illuminated
Jul 20
Waxing Gibbous
Jul 22
Full
Jul 29
Last Quarter
Aug 6
New
Aug 14
First Quarter

Hourly Weather History & Observations

Time (CDT) Temp. Heat Index Dew Point Humidity Pressure Visibility Wind Dir Wind Speed Gust Speed Precip Events Conditions
12:58 AM 68.9 °F - 65.8 °F 90% 29.94 in 10.0 mi Calm Calm - N/A   Scattered Clouds
1:58 AM 73.9 °F - 64.9 °F 73% 29.94 in 10.0 mi NE 3.5 mph - N/A   Mostly Cloudy
2:58 AM 72.7 °F - 62.2 °F 70% 29.92 in 10.0 mi North 5.8 mph - N/A   Partly Cloudy
3:58 AM 70.9 °F - 62.1 °F 74% 29.91 in 10.0 mi ENE 3.5 mph - N/A   Partly Cloudy
4:58 AM 68.9 °F - 61.0 °F 76% 29.91 in 10.0 mi South 4.6 mph - N/A   Clear
5:58 AM 61.5 °F - 60.1 °F 95% 29.91 in 10.0 mi North 2.3 mph - N/A   Clear
6:58 AM 65.8 °F - 61.3 °F 85% 29.93 in 10.0 mi NNW 2.3 mph - N/A   Clear
7:58 AM 72.7 °F - 61.5 °F 68% 29.93 in 10.0 mi ESE 2.3 mph - N/A   Clear
8:58 AM 76.3 °F - 63.0 °F 63% 29.95 in 10.0 mi NE 2.3 mph - N/A   Clear
9:58 AM 77.7 °F - 63.5 °F 61% 29.97 in 10.0 mi NE 4.6 mph - N/A   Partly Cloudy
10:58 AM 81.1 °F 82.8 °F 64.4 °F 57% 30.00 in 10.0 mi ENE 4.6 mph - N/A   Clear
11:58 AM 82.9 °F 84.2 °F 63.5 °F 52% 29.98 in 10.0 mi East 4.6 mph - N/A   Clear
12:58 PM 85.6 °F 85.7 °F 61.0 °F 43% 29.95 in 10.0 mi East 8.1 mph - N/A   Clear
1:20 PM 86.0 °F 86.1 °F 60.8 °F 43% 29.95 in 10.0 mi SE 8.1 mph - N/A   Light Drizzle
1:21 PM 86.0 °F 86.1 °F 60.8 °F 43% 29.95 in 10.0 mi SE 8.1 mph - N/A   Clear
1:58 PM 86.0 °F 85.4 °F 59.4 °F 40% 29.94 in 10.0 mi SE 9.2 mph - 0.00 in   Scattered Clouds
2:05 PM 86.0 °F 85.4 °F 59.0 °F 40% 29.94 in 10.0 mi ESE 8.1 mph - N/A   Light Drizzle
2:15 PM 87.8 °F 87.1 °F 59.0 °F 38% 29.94 in 10.0 mi East 6.9 mph - N/A   Scattered Clouds
2:58 PM 86.4 °F 85.4 °F 58.3 °F 38% 29.93 in 10.0 mi SE 6.9 mph - 0.00 in   Scattered Clouds
3:58 PM 88.0 °F 86.5 °F 55.9 °F 34% 29.93 in 10.0 mi Calm Calm - N/A   Partly Cloudy
4:58 PM 87.8 °F 86.7 °F 57.6 °F 36% 29.91 in 10.0 mi Variable 3.5 mph - N/A   Clear
5:58 PM 86.5 °F 85.6 °F 58.5 °F 38% 29.87 in 10.0 mi SSE 9.2 mph - N/A   Clear
6:58 PM 85.6 °F 84.1 °F 55.4 °F 35% 29.85 in 10.0 mi SSE 8.1 mph - N/A   Clear
7:58 PM 82.8 °F 83.6 °F 62.4 °F 50% 29.86 in 10.0 mi ENE 3.5 mph - N/A   Clear
8:58 PM 76.1 °F - 62.8 °F 63% 29.88 in 10.0 mi NE 2.3 mph - N/A   Clear
9:58 PM 71.1 °F - 63.1 °F 76% 29.92 in 10.0 mi Calm Calm - N/A   Scattered Clouds
10:58 PM 67.6 °F - 63.7 °F 87% 29.92 in 10.0 mi South 2.3 mph - N/A   Clear
11:58 PM 68.9 °F - 63.5 °F 83% 29.90 in 10.0 mi Calm Calm - N/A   Clear